Time,TemperatureF,DewpointF,PressureIn,WindDirection,WindDirectionDegrees,WindSpeedMPH,WindSpeedGustMPH,Humidity,HourlyPrecipIn,Conditions,Clouds,dailyrainin,SoftwareType,DateUTC
2013-06-27 00:02:00,68.0,58.0,29.74,West,263,8.0,-999.0,70,-99.99,,,-99.99,,2013-06-27 05:02:00,
2013-06-27 00:12:00,68.0,58.0,29.74,West,263,8.0,-999.0,70,-99.99,,,-99.99,,2013-06-27 05:12:00,
2013-06-27 00:22:00,67.0,57.0,29.75,West,270,9.0,-999.0,71,-99.99,,,-99.99,,2013-06-27 05:22:00,
2013-06-27 00:32:00,67.0,58.0,29.75,West,277,9.0,-999.0,72,-99.99,,,-99.99,,2013-06-27 05:32:00,
2013-06-27 00:42:00,67.0,58.0,29.75,West,277,9.0,-999.0,72,-99.99,,,-99.99,,2013-06-27 05:42:00,
2013-06-27 00:53:00,66.0,58.0,29.75,West,275,9.0,-999.0,75,-99.99,,,-99.99,,2013-06-27 05:53:00,
2013-06-27 01:01:00,65.0,58.0,29.76,West,274,7.0,-999.0,77,-99.99,,,-99.99,,2013-06-27 06:01:00,
2013-06-27 01:12:00,65.0,58.0,29.76,West,274,7.0,-999.0,77,-99.99,,,-99.99,,2013-06-27 06:12:00,
2013-06-27 01:22:00,65.0,58.0,29.76,West,278,7.0,-999.0,78,-99.99,,,-99.99,,2013-06-27 06:22:00,
2013-06-27 01:34:00,65.0,59.0,29.75,West,273,7.0,-999.0,80,-99.99,,,-99.99,,2013-06-27 06:34:00,
2013-06-27 01:43:00,65.0,59.0,29.75,West,273,7.0,-999.0,80,-99.99,,,-99.99,,2013-06-27 06:43:00,
2013-06-27 01:53:00,65.0,59.0,29.76,West,276,8.0,-999.0,80,-99.99,,,-99.99,,2013-06-27 06:53:00,
2013-06-27 02:02:00,65.0,59.0,29.76,West,277,8.0,-999.0,81,-99.99,,,-99.99,,2013-06-27 07:02:00,
2013-06-27 02:12:00,65.0,59.0,29.76,West,277,8.0,-999.0,81,-99.99,,,-99.99,,2013-06-27 07:12:00,
2013-06-27 02:22:00,64.0,58.0,29.77,West,271,8.0,-999.0,82,-99.99,,,-99.99,,2013-06-27 07:22:00,
2013-06-27 02:33:00,64.0,58.0,29.77,West,273,9.0,-999.0,82,-99.99,,,-99.99,,2013-06-27 07:33:00,
2013-06-27 02:42:00,64.0,58.0,29.77,West,273,9.0,-999.0,82,-99.99,,,-99.99,,2013-06-27 07:42:00,
2013-06-27 02:52:00,64.0,58.0,29.77,West,279,8.0,-999.0,82,-99.99,,,-99.99,,2013-06-27 07:52:00,
2013-06-27 03:01:00,63.0,58.0,29.77,West,273,6.0,-999.0,84,-99.99,,,-99.99,,2013-06-27 08:01:00,
2013-06-27 03:11:00,63.0,58.0,29.77,West,273,6.0,-999.0,84,-99.99,,,-99.99,,2013-06-27 08:11:00,
2013-06-27 03:22:00,63.0,58.0,29.78,WNW,286,5.0,-999.0,84,-99.99,,,-99.99,,2013-06-27 08:22:00,
2013-06-27 03:34:00,63.0,58.0,29.77,West,272,6.0,-999.0,84,-99.99,,,-99.99,,2013-06-27 08:34:00,
2013-06-27 03:43:00,63.0,58.0,29.77,West,272,6.0,-999.0,84,-99.99,,,-99.99,,2013-06-27 08:43:00,
2013-06-27 03:52:00,62.0,58.0,29.78,West,271,6.0,-999.0,87,-99.99,,,-99.99,,2013-06-27 08:52:00,
2013-06-27 04:02:00,62.0,58.0,29.78,West,273,7.0,-999.0,87,-99.99,,,-99.99,,2013-06-27 09:02:00,
2013-06-27 04:11:00,62.0,58.0,29.78,West,273,7.0,-999.0,87,-99.99,,,-99.99,,2013-06-27 09:11:00,
2013-06-27 04:22:00,62.0,58.0,29.78,West,267,7.0,-999.0,87,-99.99,,,-99.99,,2013-06-27 09:22:00,
2013-06-27 04:34:00,61.0,57.0,29.78,West,262,7.0,-999.0,88,-99.99,,,-99.99,,2013-06-27 09:34:00,
2013-06-27 04:43:00,61.0,57.0,29.78,West,262,7.0,-999.0,88,-99.99,,,-99.99,,2013-06-27 09:43:00,
2013-06-27 04:53:00,61.0,57.0,29.78,West,277,7.0,-999.0,87,-99.99,,,-99.99,,2013-06-27 09:53:00,
2013-06-27 05:01:00,62.0,58.0,29.78,West,279,6.0,-999.0,86,-99.99,,,-99.99,,2013-06-27 10:01:00,
2013-06-27 05:11:00,62.0,58.0,29.78,West,279,6.0,-999.0,86,-99.99,,,-99.99,,2013-06-27 10:11:00,
2013-06-27 05:22:00,61.0,57.0,29.78,West,274,7.0,-999.0,86,-99.99,,,-99.99,,2013-06-27 10:22:00,
2013-06-27 05:32:00,61.0,57.0,29.78,West,263,7.0,-999.0,87,-99.99,,,-99.99,,2013-06-27 10:32:00,
2013-06-27 05:43:00,61.0,57.0,29.78,West,263,7.0,-999.0,87,-99.99,,,-99.99,,2013-06-27 10:43:00,
2013-06-27 05:54:00,61.0,57.0,29.78,West,273,8.0,-999.0,86,-99.99,,,-99.99,,2013-06-27 10:54:00,
2013-06-27 06:01:00,60.0,56.0,29.79,West,269,7.0,-999.0,86,-99.99,,,-99.99,,2013-06-27 11:01:00,
2013-06-27 06:11:00,60.0,56.0,29.79,West,269,7.0,-999.0,86,-99.99,,,-99.99,,2013-06-27 11:11:00,
2013-06-27 06:21:00,60.0,56.0,29.79,West,265,7.0,-999.0,86,-99.99,,,-99.99,,2013-06-27 11:21:00,
2013-06-27 06:33:00,60.0,55.0,29.79,West,261,10.0,-999.0,85,-99.99,,,-99.99,,2013-06-27 11:33:00,
2013-06-27 06:43:00,60.0,55.0,29.79,West,261,10.0,-999.0,85,-99.99,,,-99.99,,2013-06-27 11:43:00,
2013-06-27 06:52:00,61.0,56.0,29.79,West,268,9.0,-999.0,83,-99.99,,,-99.99,,2013-06-27 11:52:00,
2013-06-27 07:01:00,62.0,56.0,29.79,West,271,10.0,-999.0,80,-99.99,,,-99.99,,2013-06-27 12:01:00,
2013-06-27 07:11:00,62.0,56.0,29.79,West,271,10.0,-999.0,80,-99.99,,,-99.99,,2013-06-27 12:11:00,
2013-06-27 07:22:00,63.0,56.0,29.80,West,278,10.0,-999.0,77,-99.99,,,-99.99,,2013-06-27 12:22:00,
2013-06-27 07:34:00,64.0,56.0,29.80,West,280,10.0,-999.0,76,-99.99,,,-99.99,,2013-06-27 12:34:00,
2013-06-27 07:42:00,64.0,56.0,29.80,West,280,10.0,-999.0,76,-99.99,,,-99.99,,2013-06-27 12:42:00,
2013-06-27 08:01:00,66.0,57.0,29.81,WNW,288,9.0,-999.0,73,-99.99,,,-99.99,,2013-06-27 13:01:00,
2013-06-27 08:11:00,66.0,57.0,29.81,WNW,288,9.0,-999.0,73,-99.99,,,-99.99,,2013-06-27 13:11:00,
2013-06-27 08:22:00,67.0,57.0,29.80,West,280,10.0,-999.0,71,-99.99,,,-99.99,,2013-06-27 13:22:00,
2013-06-27 08:34:00,68.0,57.0,29.80,West,275,11.0,-999.0,68,-99.99,,,-99.99,,2013-06-27 13:34:00,
2013-06-27 08:43:00,68.0,57.0,29.80,West,275,11.0,-999.0,68,-99.99,,,-99.99,,2013-06-27 13:43:00,
2013-06-27 08:52:00,69.0,58.0,29.81,WNW,282,11.0,-999.0,67,-99.99,,,-99.99,,2013-06-27 13:52:00,
2013-06-27 09:01:00,70.0,57.0,29.81,West,277,12.0,-999.0,64,-99.99,,,-99.99,,2013-06-27 14:01:00,
2013-06-27 09:11:00,70.0,57.0,29.81,West,277,12.0,-999.0,64,-99.99,,,-99.99,,2013-06-27 14:11:00,
2013-06-27 09:22:00,70.0,56.0,29.82,West,277,12.0,-999.0,61,-99.99,,,-99.99,,2013-06-27 14:22:00,
2013-06-27 09:33:00,71.0,56.0,29.82,WNW,286,13.0,-999.0,59,-99.99,,,-99.99,,2013-06-27 14:33:00,
2013-06-27 09:43:00,71.0,56.0,29.82,WNW,286,13.0,-999.0,59,-99.99,,,-99.99,,2013-06-27 14:43:00,
2013-06-27 09:52:00,72.0,56.0,29.82,West,266,14.0,-999.0,58,-99.99,,,-99.99,,2013-06-27 14:52:00,
2013-06-27 10:11:00,72.0,56.0,29.81,West,269,13.0,-999.0,57,-99.99,,,-99.99,,2013-06-27 15:11:00,
2013-06-27 10:22:00,73.0,56.0,29.82,WNW,299,15.0,-999.0,55,-99.99,,,-99.99,,2013-06-27 15:22:00,
2013-06-27 10:33:00,74.0,58.0,29.81,WNW,298,13.0,-999.0,57,-99.99,,,-99.99,,2013-06-27 15:33:00,
2013-06-27 10:42:00,74.0,58.0,29.81,WNW,298,13.0,-999.0,57,-99.99,,,-99.99,,2013-06-27 15:42:00,
2013-06-27 10:52:00,74.0,56.0,29.81,WNW,293,12.0,-999.0,53,-99.99,,,-99.99,,2013-06-27 15:52:00,
2013-06-27 11:02:00,75.0,58.0,29.81,WNW,292,11.0,-999.0,56,-99.99,,,-99.99,,2013-06-27 16:02:00,
2013-06-27 11:11:00,75.0,58.0,29.81,WNW,292,11.0,-999.0,56,-99.99,,,-99.99,,2013-06-27 16:11:00,
2013-06-27 11:23:00,75.0,56.0,29.82,WNW,284,12.0,-999.0,51,-99.99,,,-99.99,,2013-06-27 16:23:00,
2013-06-27 11:43:00,75.0,57.0,29.82,WNW,295,13.0,-999.0,54,-99.99,,,-99.99,,2013-06-27 16:43:00,
2013-06-27 11:53:00,76.0,57.0,29.82,WNW,286,13.0,-999.0,52,-99.99,,,-99.99,,2013-06-27 16:53:00,
2013-06-27 12:01:00,76.0,58.0,29.82,WNW,288,12.0,-999.0,53,-99.99,,,-99.99,,2013-06-27 17:01:00,
2013-06-27 12:11:00,76.0,58.0,29.82,WNW,288,12.0,-999.0,53,-99.99,,,-99.99,,2013-06-27 17:11:00,
2013-06-27 12:22:00,76.0,56.0,29.83,NW,304,16.0,-999.0,50,-99.99,,,-99.99,,2013-06-27 17:22:00,
2013-06-27 12:33:00,77.0,55.0,29.83,WNW,294,14.0,-999.0,47,-99.99,,,-99.99,,2013-06-27 17:33:00,
2013-06-27 12:43:00,77.0,55.0,29.83,WNW,294,14.0,-999.0,47,-99.99,,,-99.99,,2013-06-27 17:43:00,
2013-06-27 12:53:00,77.0,55.0,29.83,WNW,290,15.0,-999.0,47,-99.99,,,-99.99,,2013-06-27 17:53:00,
2013-06-27 13:01:00,77.0,55.0,29.83,West,276,18.0,-999.0,46,-99.99,,,-99.99,,2013-06-27 18:01:00,
2013-06-27 13:11:00,77.0,55.0,29.83,West,276,18.0,-999.0,46,-99.99,,,-99.99,,2013-06-27 18:11:00,
2013-06-27 13:22:00,78.0,56.0,29.83,WNW,295,16.0,-999.0,46,-99.99,,,-99.99,,2013-06-27 18:22:00,
2013-06-27 13:32:00,78.0,56.0,29.83,WNW,292,16.0,-999.0,46,-99.99,,,-99.99,,2013-06-27 18:32:00,
2013-06-27 13:44:00,78.0,56.0,29.83,WNW,292,16.0,-999.0,46,-99.99,,,-99.99,,2013-06-27 18:44:00,
2013-06-27 13:52:00,78.0,57.0,29.83,NW,315,15.0,-999.0,49,-99.99,,,-99.99,,2013-06-27 18:52:00,
2013-06-27 14:23:00,78.0,59.0,29.83,WNW,294,16.0,-999.0,52,-99.99,,,-99.99,,2013-06-27 19:23:00,
2013-06-27 14:33:00,78.0,59.0,29.84,WNW,299,14.0,-999.0,53,-99.99,,,-99.99,,2013-06-27 19:33:00,
2013-06-27 14:42:00,78.0,59.0,29.84,WNW,299,14.0,-999.0,53,-99.99,,,-99.99,,2013-06-27 19:42:00,
2013-06-27 14:53:00,78.0,59.0,29.84,NW,321,15.0,-999.0,52,-99.99,,,-99.99,,2013-06-27 19:53:00,
2013-06-27 15:01:00,78.0,60.0,29.84,WNW,292,14.0,-999.0,54,-99.99,,,-99.99,,2013-06-27 20:01:00,
2013-06-27 15:11:00,78.0,60.0,29.84,WNW,292,14.0,-999.0,54,-99.99,,,-99.99,,2013-06-27 20:11:00,
2013-06-27 15:22:00,78.0,59.0,29.84,WNW,292,16.0,-999.0,52,-99.99,,,-99.99,,2013-06-27 20:22:00,
2013-06-27 15:36:00,78.0,59.0,29.84,WNW,288,15.0,-999.0,52,-99.99,,,-99.99,,2013-06-27 20:36:00,
2013-06-27 15:45:00,78.0,59.0,29.84,WNW,288,15.0,-999.0,52,-99.99,,,-99.99,,2013-06-27 20:45:00,
2013-06-27 15:55:00,79.0,60.0,29.84,NW,304,14.0,-999.0,52,-99.99,,,-99.99,,2013-06-27 20:55:00,
2013-06-27 16:13:00,79.0,59.0,29.85,NW,310,14.0,-999.0,50,-99.99,,,-99.99,,2013-06-27 21:13:00,
2013-06-27 16:24:00,79.0,58.0,29.85,WNW,298,13.0,-999.0,49,-99.99,,,-99.99,,2013-06-27 21:24:00,
2013-06-27 16:34:00,79.0,58.0,29.85,WNW,288,14.0,-999.0,49,-99.99,,,-99.99,,2013-06-27 21:34:00,
2013-06-27 16:45:00,79.0,58.0,29.85,WNW,288,14.0,-999.0,49,-99.99,,,-99.99,,2013-06-27 21:45:00,
2013-06-27 17:05:00,77.0,59.0,29.85,WNW,303,13.0,-999.0,54,-99.99,,,-99.99,,2013-06-27 22:05:00,
2013-06-27 17:13:00,77.0,59.0,29.85,WNW,303,13.0,-999.0,54,-99.99,,,-99.99,,2013-06-27 22:13:00,
2013-06-27 17:22:00,76.0,59.0,29.86,NW,317,9.0,-999.0,55,-99.99,,,-99.99,,2013-06-27 22:22:00,
2013-06-27 17:33:00,79.0,59.0,29.86,West,280,10.0,-999.0,51,-99.99,,,-99.99,,2013-06-27 22:33:00,
2013-06-27 17:57:00,79.0,60.0,29.86,NW,315,11.0,-999.0,52,-99.99,,,-99.99,,2013-06-27 22:57:00,
2013-06-27 18:03:00,78.0,58.0,29.86,WNW,294,12.0,-999.0,51,-99.99,,,-99.99,,2013-06-27 23:03:00,
2013-06-27 18:15:00,78.0,58.0,29.86,WNW,294,12.0,-999.0,51,-99.99,,,-99.99,,2013-06-27 23:15:00,
2013-06-27 18:25:00,78.0,58.0,29.86,NW,315,12.0,-999.0,51,-99.99,,,-99.99,,2013-06-27 23:25:00,
2013-06-27 18:34:00,78.0,57.0,29.86,WNW,300,11.0,-999.0,48,-99.99,,,-99.99,,2013-06-27 23:34:00,
2013-06-27 18:44:00,78.0,57.0,29.86,WNW,300,11.0,-999.0,48,-99.99,,,-99.99,,2013-06-27 23:44:00,
2013-06-27 19:04:00,78.0,57.0,29.86,NNW,331,10.0,-999.0,48,-99.99,,,-99.99,,2013-06-28 00:04:00,
2013-06-27 19:13:00,78.0,57.0,29.86,NNW,331,10.0,-999.0,48,-99.99,,,-99.99,,2013-06-28 00:13:00,
2013-06-27 19:34:00,77.0,56.0,29.87,NW,319,10.0,-999.0,48,-99.99,,,-99.99,,2013-06-28 00:34:00,
2013-06-27 19:44:00,77.0,56.0,29.87,NW,319,10.0,-999.0,48,-99.99,,,-99.99,,2013-06-28 00:44:00,
2013-06-27 19:56:00,77.0,57.0,29.87,NW,323,8.0,-999.0,51,-99.99,,,-99.99,,2013-06-28 00:56:00,
2013-06-27 20:04:00,76.0,57.0,29.88,WNW,295,9.0,-999.0,51,-99.99,,,-99.99,,2013-06-28 01:04:00,
2013-06-27 20:13:00,76.0,57.0,29.88,WNW,295,9.0,-999.0,51,-99.99,,,-99.99,,2013-06-28 01:13:00,
2013-06-27 20:24:00,76.0,57.0,29.88,NW,313,8.0,-999.0,51,-99.99,,,-99.99,,2013-06-28 01:24:00,
2013-06-27 20:35:00,75.0,57.0,29.88,NW,314,7.0,-999.0,53,-99.99,,,-99.99,,2013-06-28 01:35:00,
2013-06-27 20:45:00,75.0,57.0,29.88,NW,314,7.0,-999.0,53,-99.99,,,-99.99,,2013-06-28 01:45:00,
2013-06-27 20:56:00,74.0,57.0,29.88,NW,304,6.0,-999.0,56,-99.99,,,-99.99,,2013-06-28 01:56:00,
2013-06-27 21:04:00,74.0,57.0,29.88,NW,305,7.0,-999.0,56,-99.99,,,-99.99,,2013-06-28 02:04:00,
2013-06-27 21:26:00,73.0,58.0,29.88,WNW,303,5.0,-999.0,59,-99.99,,,-99.99,,2013-06-28 02:26:00,
2013-06-27 21:35:00,72.0,58.0,29.88,WNW,295,6.0,-999.0,61,-99.99,,,-99.99,,2013-06-28 02:35:00,
2013-06-27 21:47:00,72.0,58.0,29.88,WNW,295,6.0,-999.0,61,-99.99,,,-99.99,,2013-06-28 02:47:00,
2013-06-27 21:57:00,71.0,58.0,29.88,WNW,293,5.0,-999.0,64,-99.99,,,-99.99,,2013-06-28 02:57:00,
2013-06-27 22:04:00,70.0,58.0,29.88,WNW,288,5.0,-999.0,65,-99.99,,,-99.99,,2013-06-28 03:04:00,
2013-06-27 22:14:00,70.0,58.0,29.88,WNW,288,5.0,-999.0,65,-99.99,,,-99.99,,2013-06-28 03:14:00,
2013-06-27 22:26:00,70.0,58.0,29.89,West,275,5.0,-999.0,66,-99.99,,,-99.99,,2013-06-28 03:26:00,
2013-06-27 22:36:00,69.0,58.0,29.90,WNW,284,5.0,-999.0,67,-99.99,,,-99.99,,2013-06-28 03:36:00,
2013-06-27 22:44:00,69.0,58.0,29.90,WNW,284,5.0,-999.0,67,-99.99,,,-99.99,,2013-06-28 03:44:00,
2013-06-27 22:56:00,69.0,58.0,29.91,West,279,6.0,-999.0,69,-99.99,,,-99.99,,2013-06-28 03:56:00,
2013-06-27 23:02:00,67.0,58.0,29.91,West,279,6.0,-999.0,73,-99.99,,,-99.99,,2013-06-28 04:02:00,
2013-06-27 23:11:00,67.0,58.0,29.91,West,279,6.0,-999.0,73,-99.99,,,-99.99,,2013-06-28 04:11:00,
2013-06-27 23:22:00,66.0,58.0,29.91,WNW,282,5.0,-999.0,76,-99.99,,,-99.99,,2013-06-28 04:22:00,
2013-06-27 23:33:00,65.0,58.0,29.91,West,275,5.0,-999.0,79,-99.99,,,-99.99,,2013-06-28 04:33:00,
2013-06-27 23:43:00,65.0,58.0,29.91,West,275,5.0,-999.0,79,-99.99,,,-99.99,,2013-06-28 04:43:00,
2013-06-27 23:53:00,65.0,58.0,29.91,West,278,5.0,-999.0,79,-99.99,,,-99.99,,2013-06-28 04:53:00,